Temp
47 48 40 41 42 41 39 37 37 44 47 40 43 44 50 55 53 52 52 52 54 55 58 60 61 61 61 61 61 63 60 65 66 63 63 63 62 65 66 67 67 68 67 64
47 41 42 43 42 39 40 38 40 43 43 41 43 42 50 52 51 52 52 52 53 54 57 58 59 59 59 58 59 60 61 60 57 65 64 64 64 64 65 66 66 66 66 65
41 40 42 40 40 38 41 37 38 35 40 44 40 44 45 51 50 51 51 52 53 53 53 55 56 57 57 57 57 57 58 59 57 58 62 64 63 62 61 61 62 63 66 64
41 42 39 39 38 38 34 40 38 37 35 31 40 29 44 46 48 48 50 52 54 54 54 54 54 54 55 55 56 56 57 57 59 56 56 61 61 61 62 63 62 61 61 63
39 38 37 37 38 39 37 41 38 36 33 30 34 27 42 50 45 47 49 50 52 52 52 52 52 53 54 54 54 54 54 55 57 58 55 58 60 62 64 62 61 60 60 60
39 40 39 39 41 40 41 39 37 36 33 23 33 32 38 43 45 47 48 49 49 50 51 52 53 52 52 52 51 52 52 53 55 56 56 57 60 60 58 58 57 57 58 58
38 38 40 40 38 41 40 33 27 25 25 26 35 32 38 46 48 46 46 47 46 47 48 48 47 47 48 47 48 48 50 50 52 53 54 57 60 60 56 54 54 51 51 52
30 33 37 38 37 33 33 31 25 17 22 25 36 25 38 46 48 48 49 44 44 44 44 42 44 44 44 44 45 46 47 48 50 52 52 56 56 59 56 55 53 52 51 52
31 33 38 37 38 37 31 29 35 25 26 21 31 36 45 45 45 45 42 40 40 39 40 39 40 41 42 42 43 44 46 47 49 50 51 53 52 57 55 54 53 52 51 50
31 26 35 36 38 38 34 37 26 27 18 18 27 30 35 38 36 36 36 38 38 37 37 38 38 39 40 42 42 42 44 45 48 49 51 52 49 56 53 52 48 45 43 43
33 28 33 33 33 33 32 29 29 29 27 20 19 30 42 39 38 36 35 38 36 34 34 35 36 37 38 40 40 41 43 44 46 48 50 49 48 47 45 43 41 40 39 39
34 27 24 32 35 36 35 29 29 23 22 26 23 25 45 44 42 39 34 36 35 34 32 33 33 34 35 37 38 39 41 43 45 47 49 44 42 41 38 35 35 36 34 35
32 25 22 30 31 33 31 33 32 26 25 21 19 28 49 45 41 36 34 34 32 31 31 31 31 32 32 33 34 36 37 40 44 45 41 38 36 35 34 34 34 34 34 34
37 25 23 29 31 29 27 30 32 25 19 23 25 29 35 36 33 32 33 32 31 30 28 28 29 30 30 32 33 34 36 39 38 37 36 34 34 35 34 34 33 34 35 34
34 21 20 23 27 27 26 25 27 23 23 21 30 24 30 33 31 31 31 31 30 27 27 27 27 28 28 30 32 32 33 34 35 34 33 32 33 34 33 33 33 33 33 33
32 24 22 17 24 25 22 28 28 26 25 24 26 25 40 39 36 33 30 29 27 26 25 26 27 27 27 28 29 32 32 32 34 33 32 32 32 33 32 32 31 30 30 30
27 23 18 21 21 22 20 29 31 29 29 27 26 35 36 33 32 32 29 28 26 25 25 26 26 26 26 27 29 28 30 32 31 31 31 30 30 29 30 30 30 29 28 29
24 22 20 17 16 23 35 37 36 33 34 33 32 34 37 33 34 32 31 29 27 25 26 26 27 27 27 28 28 28 28 28 28 28 28 28 28 28 29 28 28 28 29 29
32 25 15 15 13 26 35 33 34 32 34 38 36 38 37 37 39 34 32 31 28 27 27 26 27 27 27 27 28 27 27 27 27 27 27 27 28 27 28 27 28 29 29 29
30 28 21 10 14 21 36 35 38 38 31 40 38 36 34 35 34 32 31 31 29 28 28 26 26 28 27 27 28 28 27 27 26 27 27 28 28 28 27 28 28 29 30 29
19 20 16 14 15 21 35 36 37 28 35 40 37 36 35 30 31 31 32 31 30 29 28 28 27 25 27 28 28 27 27 26 28 29 29 29 29 29 29 29 29 30 30 30
18 16 15 13 12 19 35 33 33 41 39 39 37 36 35 35 34 31 31 31 30 28 27 28 27 26 26 28 28 27 26 28 29 29 29 28 29 29 29 28 28 29 29 28
21 29 24 24 27 38 37 40 41 41 40 39 38 36 37 36 34 33 31 32 31 30 29 29 29 28 27 28 30 26 26 27 27 26 25 26 26 27 27 27 27 27 28 27
25 30 27 26 37 34 38 40 38 39 39 39 39 37 37 37 34 33 32 31 30 29 27 27 28 27 25 27 27 26 26 28 27 25 25 25 25 25 26 27 28 27 27 26
31 28 25 25 32 36 38 38 39 38 37 36 36 36 37 36 33 33 32 30 30 28 27 27 26 25 25 26 25 26 26 27 25 25 25 26 27 27 26 27 27 27 27 29
28 29 30 33 39 40 40 38 37 36 34 35 33 32 33 35 34 32 31 31 30 28 27 26 25 25 24 24 23 23 24 25 26 25 26 27 27 26 27 27 27 30 30 29
MSLP
1019.85 1019.43 1020.11 1020.59 1020.58 1020.66 1020.33 1019.67 1018.61 1017.50 1017.15 1016.86 1015.06 1012.99 1011.69 1011.08 1011.06 1011.05 1011.29 1011.29 1011.14 1011.08 1010.81 1010.58 1010.39 1010.18 1009.82 1009.37 1008.92 1008.14 1007.59 1006.62 1006.21 1006.02 1006.08 1006.44 1006.50 1006.25 1007.35 1008.16 1008.93 1009.66 1010.36 1011.10
1020.12 1020.46 1021.26 1021.36 1021.14 1020.97 1020.46 1019.61 1018.38 1017.54 1017.46 1017.07 1014.71 1012.56 1011.30 1010.91 1010.89 1010.93 1011.06 1011.12 1011.11 1010.89 1010.57 1010.21 1010.03 1009.85 1009.69 1009.27 1008.82 1008.29 1007.63 1007.11 1006.68 1005.45 1004.82 1005.24 1005.44 1005.62 1006.24 1007.11 1008.04 1008.57 1009.35 1010.06
1020.80 1021.48 1021.67 1021.63 1021.33 1021.03 1020.21 1019.67 1019.04 1018.96 1017.42 1016.26 1015.48 1012.26 1011.13 1010.71 1010.96 1011.16 1011.21 1011.18 1010.94 1010.72 1010.46 1010.09 1009.68 1009.58 1009.35 1009.05 1008.68 1008.25 1007.68 1007.05 1006.54 1005.82 1004.51 1003.39 1004.54 1004.95 1005.42 1005.92 1006.97 1007.66 1008.33 1009.12
1021.70 1022.00 1021.96 1021.63 1021.48 1021.48 1020.38 1020.08 1019.81 1019.12 1018.61 1016.80 1016.34 1013.48 1011.07 1010.67 1010.39 1010.61 1010.68 1010.63 1010.63 1010.44 1010.39 1010.11 1009.60 1009.17 1009.02 1008.84 1008.55 1008.06 1007.50 1006.85 1006.14 1005.68 1004.93 1003.72 1001.85 1002.92 1003.58 1004.85 1005.93 1006.59 1007.43 1008.41
1022.32 1022.38 1022.10 1021.68 1021.73 1021.75 1020.60 1020.27 1019.58 1019.08 1018.57 1017.92 1016.13 1015.42 1010.75 1010.08 1009.88 1010.12 1010.53 1010.76 1010.59 1010.50 1010.37 1009.70 1009.37 1009.04 1008.63 1008.50 1008.16 1007.72 1007.19 1006.56 1005.89 1005.19 1004.70 1003.83 1002.72 1000.79 1002.65 1003.66 1004.89 1005.38 1006.31 1007.33
1022.89 1023.27 1022.91 1022.27 1022.02 1021.82 1021.29 1019.94 1019.41 1019.18 1018.66 1017.69 1015.83 1015.02 1010.73 1010.01 1010.08 1010.21 1010.89 1011.09 1011.12 1010.76 1010.24 1009.65 1009.16 1008.94 1008.40 1008.06 1007.74 1007.27 1006.67 1005.99 1005.41 1004.76 1004.04 1003.33 1002.46 1002.53 1001.51 1003.16 1004.05 1004.63 1005.65 1006.66
1022.93 1022.92 1022.95 1022.85 1022.26 1021.85 1021.57 1020.66 1019.63 1019.19 1018.52 1016.97 1016.04 1014.89 1011.29 1010.50 1010.40 1010.88 1011.28 1011.43 1011.60 1011.28 1010.49 1009.72 1009.23 1008.84 1008.25 1007.75 1007.32 1006.89 1006.09 1005.23 1004.94 1004.36 1003.77 1003.07 1002.35 1001.71 1002.15 1003.11 1003.74 1004.75 1005.59 1006.35
1024.20 1022.94 1023.05 1023.14 1022.97 1022.83 1022.61 1022.25 1021.76 1021.13 1019.34 1017.25 1015.82 1013.90 1010.98 1010.98 1011.09 1011.55 1011.64 1011.86 1011.63 1011.07 1010.68 1010.27 1009.33 1008.76 1008.12 1007.48 1006.91 1006.31 1005.51 1004.71 1004.31 1003.87 1003.29 1002.76 1002.31 1001.70 1001.65 1002.44 1003.36 1004.34 1005.09 1005.89
1025.12 1023.77 1023.30 1023.39 1023.46 1023.61 1023.07 1022.84 1022.85 1022.18 1020.59 1018.87 1015.19 1013.20 1011.45 1011.29 1011.73 1012.04 1012.29 1012.41 1011.71 1011.38 1010.71 1010.16 1009.36 1008.64 1007.76 1006.96 1006.29 1005.61 1004.84 1004.13 1003.70 1003.36 1002.89 1002.33 1001.97 1001.38 1001.98 1002.34 1003.09 1004.09 1005.00 1005.89
1026.09 1025.10 1023.53 1023.61 1023.76 1023.74 1023.61 1023.67 1023.36 1022.83 1021.13 1018.65 1015.12 1013.12 1011.24 1011.61 1012.26 1012.62 1012.63 1012.24 1011.79 1011.69 1010.99 1010.20 1009.23 1008.30 1007.39 1006.36 1005.60 1005.00 1004.29 1003.63 1003.14 1002.86 1002.53 1002.02 1001.76 1001.02 1001.80 1002.55 1003.64 1004.41 1005.45 1006.42
1026.53 1026.37 1024.21 1024.00 1023.60 1023.49 1023.87 1023.89 1023.89 1023.50 1022.33 1020.48 1017.05 1013.12 1012.23 1012.45 1012.57 1012.48 1012.80 1012.47 1012.19 1011.79 1011.14 1010.27 1009.26 1008.18 1007.01 1005.82 1004.94 1004.12 1003.43 1002.88 1002.52 1002.34 1002.13 1001.91 1001.55 1001.17 1002.31 1003.29 1004.37 1005.31 1006.00 1006.99
1026.94 1026.74 1025.25 1023.84 1023.74 1023.94 1023.72 1023.91 1024.02 1023.71 1022.84 1021.49 1019.64 1014.37 1012.56 1012.23 1012.56 1013.21 1013.15 1012.79 1012.73 1012.27 1011.54 1010.55 1009.44 1008.19 1006.84 1005.61 1004.51 1003.64 1002.94 1002.44 1002.16 1002.12 1001.92 1001.83 1002.04 1002.32 1003.09 1004.29 1005.33 1006.05 1006.96 1007.82
1027.16 1027.00 1026.00 1024.06 1024.41 1024.10 1023.80 1023.68 1023.82 1024.21 1024.04 1021.72 1019.90 1014.42 1012.25 1012.46 1013.01 1013.70 1013.37 1013.25 1012.94 1012.33 1011.67 1010.69 1009.51 1008.25 1006.99 1005.70 1004.47 1003.44 1002.68 1002.14 1001.92 1001.88 1002.18 1002.40 1002.74 1003.29 1004.16 1005.13 1006.18 1007.07 1007.82 1008.47
1027.25 1027.34 1026.59 1025.34 1024.18 1024.24 1023.83 1023.71 1023.88 1024.27 1023.91 1021.47 1018.92 1015.29 1013.31 1013.25 1013.79 1013.73 1013.56 1013.73 1013.29 1012.72 1012.06 1011.14 1009.92 1008.69 1007.46 1006.01 1004.71 1003.59 1002.40 1001.83 1002.22 1002.56 1003.02 1003.43 1003.98 1004.38 1005.01 1006.21 1007.04 1007.95 1008.83 1009.61
1027.42 1027.55 1027.19 1025.81 1024.76 1024.46 1023.68 1023.23 1023.34 1023.28 1022.55 1021.86 1017.66 1016.97 1015.22 1014.81 1014.76 1014.45 1014.51 1014.08 1013.50 1013.04 1012.39 1011.58 1010.59 1009.46 1008.18 1006.75 1005.42 1004.48 1003.78 1003.36 1003.34 1003.62 1004.14 1004.68 1005.40 1005.82 1006.12 1007.40 1007.72 1008.98 1010.24 1010.96
1027.82 1027.77 1027.63 1025.96 1024.95 1024.10 1022.94 1021.89 1021.73 1021.92 1021.93 1021.00 1019.36 1017.06 1015.58 1015.35 1015.26 1015.02 1015.16 1014.54 1014.01 1013.73 1013.20 1012.39 1011.54 1010.46 1009.22 1008.02 1006.90 1005.93 1005.23 1004.86 1004.65 1004.93 1005.46 1005.95 1006.42 1007.28 1007.76 1008.54 1008.92 1010.07 1011.19 1012.51
1027.97 1028.42 1028.26 1026.31 1025.18 1023.75 1021.76 1018.95 1019.33 1019.62 1019.59 1019.21 1018.14 1016.11 1015.72 1015.65 1015.66 1015.77 1015.70 1015.33 1014.98 1014.53 1013.93 1013.20 1012.43 1011.53 1010.59 1009.54 1008.55 1007.62 1007.02 1006.50 1006.29 1006.70 1007.17 1007.50 1007.81 1008.97 1009.64 1009.84 1010.48 1011.97 1012.26 1013.42
1027.98 1028.76 1028.76 1027.41 1025.29 1022.65 1018.81 1018.18 1018.11 1018.25 1017.78 1017.67 1017.16 1016.43 1016.32 1016.30 1016.02 1016.51 1016.54 1016.22 1015.80 1015.33 1014.76 1014.12 1013.40 1012.64 1011.80 1010.94 1010.02 1009.33 1008.71 1008.27 1008.27 1008.57 1008.87 1009.05 1009.16 1010.47 1010.87 1011.37 1012.44 1013.34 1013.34 1015.05
1027.96 1028.66 1029.00 1028.57 1026.39 1021.50 1017.83 1017.60 1017.45 1017.31 1016.51 1016.10 1016.35 1016.22 1016.39 1015.97 1015.73 1016.44 1016.88 1016.94 1016.71 1016.27 1015.69 1015.14 1014.40 1013.72 1012.97 1012.20 1011.58 1010.77 1010.37 1010.07 1010.12 1010.49 1010.59 1011.07 1011.47 1011.88 1012.20 1012.90 1014.42 1014.75 1014.71 1016.14
1028.27 1028.74 1028.89 1028.75 1026.46 1021.96 1017.64 1017.33 1017.24 1017.12 1016.15 1015.62 1016.19 1016.45 1016.63 1016.34 1015.93 1017.20 1017.46 1017.49 1017.21 1016.93 1016.38 1015.83 1015.28 1014.59 1013.97 1013.43 1012.87 1012.18 1012.02 1011.80 1012.01 1012.32 1012.49 1012.70 1013.18 1013.34 1014.01 1014.91 1015.40 1015.88 1016.62 1017.40
1028.27 1028.60 1028.27 1027.45 1025.56 1021.04 1017.39 1017.36 1017.50 1017.00 1015.89 1015.63 1016.21 1016.64 1016.89 1017.24 1017.93 1018.17 1018.13 1017.93 1017.85 1017.60 1017.11 1016.70 1016.18 1015.74 1015.19 1014.70 1014.17 1013.75 1013.62 1013.51 1013.77 1013.74 1013.91 1014.25 1014.66 1014.97 1015.54 1016.17 1016.97 1017.47 1017.88 1018.59
1025.85 1026.35 1026.32 1026.01 1024.30 1019.73 1016.87 1017.56 1016.85 1015.00 1015.15 1015.62 1016.25 1016.68 1016.92 1017.33 1017.73 1018.14 1018.32 1018.23 1018.16 1018.06 1017.70 1017.32 1017.03 1016.73 1016.47 1015.99 1015.52 1015.22 1015.13 1015.38 1015.20 1015.16 1015.42 1015.84 1016.24 1016.61 1017.05 1017.28 1018.10 1018.55 1018.79 1019.49
1024.08 1022.34 1022.46 1021.86 1018.58 1016.15 1016.03 1015.10 1014.77 1014.95 1015.05 1015.65 1016.12 1016.66 1016.95 1017.22 1017.63 1018.02 1018.40 1018.57 1018.66 1018.64 1018.46 1018.13 1017.70 1017.62 1017.47 1017.18 1016.80 1016.75 1017.07 1016.80 1016.70 1016.71 1017.00 1017.34 1017.76 1018.21 1018.63 1018.84 1019.21 1019.66 1020.14 1020.68
1021.90 1021.57 1020.96 1020.08 1015.51 1015.38 1015.21 1015.00 1015.13 1015.04 1015.20 1015.62 1016.10 1016.49 1016.90 1017.07 1017.64 1018.10 1018.43 1018.67 1018.81 1018.98 1018.99 1018.85 1018.52 1018.32 1018.42 1018.40 1018.23 1018.18 1018.12 1017.89 1017.78 1018.10 1018.51 1018.87 1019.12 1019.58 1019.89 1020.08 1020.34 1020.59 1021.09 1021.60
1020.05 1020.38 1019.04 1017.77 1015.61 1014.94 1014.47 1014.40 1014.26 1014.69 1015.24 1015.73 1016.16 1016.53 1016.84 1017.12 1017.56 1017.94 1018.28 1018.65 1019.03 1019.24 1019.35 1019.40 1019.35 1019.39 1019.44 1019.38 1019.25 1019.17 1018.99 1018.78 1018.86 1019.20 1019.56 1019.84 1020.09 1020.31 1020.61 1021.02 1021.37 1021.62 1022.06 1022.17
1018.06 1017.05 1016.73 1014.71 1013.78 1013.79 1013.55 1013.64 1013.97 1014.44 1014.89 1015.40 1016.11 1016.73 1016.93 1017.01 1017.35 1017.84 1018.28 1018.69 1019.14 1019.52 1019.65 1019.77 1019.91 1019.96 1020.13 1020.19 1020.17 1020.15 1020.04 1019.89 1019.92 1020.23 1020.49 1020.68 1020.87 1021.17 1021.45 1021.72 1022.03 1022.29 1022.41 1022.57
Wind_Speed
4 6 9 8 5 4 8 11 15 16 9 14 12 25 22 17 10 5 4 4 6 10 10 11 12 14 14 12 13 12 11 16 15 13 13 14 12 12 13 14 17 18 17 18
2 5 3 6 3 5 9 13 12 12 3 12 17 24 18 7 3 6 5 4 7 11 14 15 16 15 15 14 13 13 14 13 12 14 12 13 13 11 12 12 15 18 19 19
2 3 4 3 3 8 12 6 13 12 21 3 12 13 5 3 5 6 7 6 7 10 14 17 19 18 16 15 14 14 15 16 12 14 10 12 11 9 9 13 11 15 19 19
2 2 3 3 3 6 8 1 14 17 12 7 8 8 10 3 11 9 9 7 10 15 16 18 20 21 17 15 16 15 16 16 14 12 12 17 16 15 13 12 12 13 17 17
3 2 3 1 4 5 9 17 19 14 8 7 3 4 8 11 7 8 6 11 15 16 19 24 21 20 18 16 17 17 17 17 16 15 12 12 13 13 12 12 16 16 15 17
2 1 2 3 9 4 14 12 3 2 2 4 3 5 12 7 6 8 7 12 17 22 26 24 21 18 20 20 18 17 18 17 16 15 15 14 14 12 8 12 12 11 12 13
4 2 0 2 6 1 12 7 5 4 2 5 3 9 13 14 14 11 11 20 22 26 24 23 21 23 22 21 20 17 18 17 15 15 15 15 16 14 16 15 11 10 7 6
5 2 1 2 2 4 5 4 3 7 6 13 16 10 7 6 4 6 17 19 24 25 18 24 24 22 21 21 20 19 18 18 15 14 15 14 15 8 9 13 10 10 10 10
3 5 1 2 1 2 1 1 2 6 6 7 5 8 14 4 7 20 24 23 26 17 23 22 23 22 21 20 20 19 18 17 16 15 13 13 11 10 9 10 12 10 8 6
2 7 3 1 1 2 3 4 2 2 6 9 8 13 13 14 20 20 22 24 22 24 23 22 21 20 20 19 17 17 17 18 16 14 12 11 11 12 8 9 7 10 9 9
3 3 1 2 4 1 3 2 3 4 4 5 9 9 4 13 20 23 24 25 24 23 22 22 21 21 19 18 15 14 14 14 13 11 11 7 3 10 11 9 10 9 12 12
4 2 6 3 2 3 3 3 2 3 2 5 6 11 6 13 21 24 22 21 24 22 22 21 21 20 18 17 15 13 12 12 11 11 9 6 7 10 13 12 11 12 13 13
6 2 6 2 4 3 4 5 5 1 2 10 5 10 15 19 23 22 20 21 22 21 22 20 20 19 18 17 13 11 11 11 9 6 5 8 10 10 13 13 13 13 14 15
5 3 5 6 4 3 7 5 7 4 4 5 13 20 25 25 25 22 19 20 20 19 20 18 18 18 17 15 11 10 10 5 8 9 9 9 9 13 14 13 15 14 13 13
4 5 5 12 18 15 18 20 14 15 12 9 10 14 26 21 22 16 15 21 20 20 20 19 19 18 17 16 12 11 11 10 10 12 12 13 11 12 16 14 16 14 14 14
4 3 4 6 4 4 10 16 17 17 16 19 23 27 12 18 18 16 17 20 20 19 18 18 18 18 17 16 14 12 12 12 13 14 14 13 15 14 15 16 19 18 19 15
5 2 2 6 7 11 8 9 12 6 10 6 9 11 14 18 18 14 19 19 19 18 17 18 17 16 15 15 13 13 12 13 15 15 14 15 16 17 15 18 20 16 20 18
6 3 1 6 7 4 1 2 1 7 11 12 12 15 11 14 14 4 14 17 18 17 16 15 14 14 14 13 13 12 13 15 16 16 16 16 18 16 17 19 19 17 19 17
4 4 1 3 3 11 4 4 6 5 5 5 7 10 12 14 9 3 15 14 13 14 12 12 12 13 12 12 11 13 15 15 17 16 16 16 16 18 17 20 17 15 19 16
5 4 1 3 3 6 1 3 1 4 4 6 5 7 10 13 9 7 14 14 14 12 11 11 13 12 12 11 11 14 14 16 16 16 16 16 17 18 18 16 16 16 15 15
5 4 8 5 6 13 10 5 3 2 1 4 3 2 4 3 2 6 9 9 10 10 12 11 11 12 13 11 11 13 13 15 13 14 16 16 15 17 16 15 13 13 14 14
11 11 7 4 4 10 11 9 7 2 3 4 4 3 2 2 1 2 4 7 9 10 11 10 10 11 12 12 11 13 14 10 12 14 14 14 13 11 11 15 12 12 12 13
7 8 6 13 10 2 13 1 6 3 3 5 4 5 3 3 2 0 2 4 7 8 8 7 9 11 11 11 12 14 11 11 12 14 14 13 12 11 10 10 10 9 9 9
7 7 5 2 6 20 17 13 10 8 7 4 4 7 6 3 2 2 2 1 3 3 4 5 6 9 9 9 10 9 8 10 12 13 11 10 11 10 8 7 6 7 7 7
3 12 6 8 15 14 16 15 11 9 7 6 6 7 6 5 4 4 3 3 2 2 2 3 5 6 6 6 7 5 5 6 9 8 7 8 7 7 7 7 5 5 4 4
10 11 10 10 8 2 3 4 4 12 11 11 11 7 5 6 6 5 4 3 3 3 3 3 3 5 4 4 5 4 4 5 7 8 6 5 6 6 6 7 7 10 8 9
Wind_Direction
27 44 35 4 3 309 287 285 291 294 333 323 306 295 307 312 309 295 198 245 316 327 323 321 330 337 331 324 319 307 307 297 226 219 208 208 212 191 189 188 191 192 189 185
174 64 28 320 317 301 296 292 308 303 237 326 316 301 309 301 253 216 202 269 322 324 328 334 334 332 329 320 315 312 303 296 312 235 220 211 207 200 199 190 191 191 191 186
46 80 328 322 321 329 322 275 325 314 315 277 304 284 280 260 223 215 221 273 289 313 317 326 327 326 320 316 312 308 303 298 291 290 271 200 207 191 204 182 192 193 190 188
50 53 325 309 319 340 308 326 305 302 314 302 19 286 300 222 288 235 232 271 319 329 323 322 320 317 313 307 307 299 297 294 290 286 285 264 200 193 186 191 187 188 190 188
37 329 332 332 348 330 277 316 294 300 274 318 167 258 271 298 293 248 258 320 323 326 321 317 312 312 306 303 304 296 291 288 284 280 271 280 249 207 183 184 184 184 188 182
330 313 271 341 303 281 305 299 305 184 272 252 200 254 283 302 298 291 288 317 325 326 320 315 311 305 302 305 299 294 288 282 281 277 278 270 247 208 192 172 172 182 186 188
321 126 121 346 313 171 347 327 339 329 302 285 147 293 264 295 293 283 314 325 329 321 319 314 313 307 302 300 297 293 284 279 281 277 277 267 271 214 178 173 173 169 168 173
339 299 344 28 6 326 6 354 36 305 310 298 288 236 279 318 308 312 327 328 322 318 321 311 309 308 302 298 293 288 283 279 276 274 272 262 283 222 187 175 172 179 181 181
315 261 227 215 4 259 97 350 25 264 244 270 256 273 283 15 330 325 322 321 322 321 318 316 312 309 305 298 292 287 280 277 275 273 270 267 285 193 178 181 169 178 175 169
198 287 162 23 253 206 280 357 238 206 302 296 273 297 313 349 330 319 326 327 326 324 323 319 318 313 307 300 294 279 276 272 271 268 265 266 292 170 161 150 143 128 117 123
171 273 124 263 197 262 192 184 216 282 259 292 309 299 12 344 327 336 329 329 331 329 325 325 321 318 310 307 293 284 276 267 261 262 260 259 227 119 112 118 113 118 116 116
187 207 269 254 133 276 235 219 220 249 263 262 277 273 286 330 340 339 323 329 332 330 328 327 326 321 320 315 308 296 282 269 258 253 259 149 120 119 107 105 104 109 112 110
183 218 301 174 158 171 223 190 206 104 278 244 274 276 314 327 338 332 324 336 333 333 332 334 331 332 331 323 315 310 289 261 248 238 126 115 105 105 103 107 104 105 108 111
182 191 236 250 306 5 263 235 228 160 237 266 245 283 301 326 334 329 334 335 334 338 338 337 338 340 335 331 332 343 348 102 88 83 87 86 100 111 106 108 104 103 105 111
200 254 217 263 270 277 274 267 250 228 222 240 287 300 302 316 330 324 333 334 339 345 344 345 345 343 344 347 360 18 33 51 74 81 83 82 85 98 98 101 96 98 96 93
176 267 298 280 281 256 271 258 249 240 241 255 268 280 276 333 327 333 343 340 344 347 347 347 348 350 354 358 7 26 43 54 69 77 81 86 90 82 93 97 91 94 90 91
169 229 333 269 341 309 266 238 198 185 192 199 258 296 328 326 327 340 343 346 346 345 349 350 354 356 358 4 12 30 42 58 66 71 75 80 86 82 89 90 92 93 94 90
145 151 282 289 310 267 46 279 178 243 256 226 268 281 311 303 308 3 353 349 346 347 351 353 358 360 5 11 27 40 48 59 67 69 73 76 81 93 89 91 89 91 91 95
174 158 191 288 273 301 256 180 178 191 279 205 238 302 322 321 307 95 3 356 348 346 354 357 0 8 10 19 32 52 58 64 66 69 72 76 84 87 88 88 97 97 94 93
166 136 243 163 244 258 57 149 72 142 262 181 240 307 329 336 13 3 343 354 357 358 2 4 8 14 19 24 45 61 63 68 72 77 80 82 83 83 86 89 89 90 95 96
168 194 222 195 252 279 245 150 161 244 74 173 202 276 320 341 305 320 327 357 8 8 13 16 21 26 22 28 45 59 67 70 79 84 86 86 89 92 94 92 92 101 100 103
176 165 194 153 222 274 160 131 208 129 141 154 181 181 259 272 296 300 334 0 8 11 11 24 36 30 24 28 46 57 53 56 73 81 82 82 84 87 94 101 102 100 105 105
225 211 185 200 216 306 203 302 196 195 159 171 169 170 219 252 228 214 354 18 16 17 23 28 62 63 39 39 56 63 42 56 69 68 66 67 69 71 78 90 98 99 96 98
225 186 236 191 248 235 234 240 232 221 224 166 169 170 190 216 190 164 146 60 72 40 29 6 57 67 60 50 64 68 68 76 79 79 79 80 82 82 79 82 89 100 110 123
178 157 191 259 278 266 255 238 235 225 216 193 167 174 190 176 186 183 174 169 149 118 86 49 62 71 65 55 59 52 70 89 90 89 90 94 94 92 93 75 88 99 83 135
185 187 187 229 220 233 216 175 180 202 187 177 165 171 191 186 178 178 174 170 167 159 144 116 97 106 94 78 71 59 41 56 91 92 89 92 100 94 97 103 95 83 113 120